STARLINK-34562

Last updated on Sat Aug 02 2025 00:02:05 GMT+0000 (Coordinated Universal Time)

1 64725U 25144B 25213.16536462 .00044270 00000+0 11099-2 0 9994 2 64725 53.1594 127.1301 0000961 72.9785 287.1326 15.39631449 5900
UTC large
Height (km)
Speed (km/s)
/
Latitude / Longitude
Inclination (degrees)
Orbital Period (minutes)
Azimuth
Elevation
Range (km)
Doppler Factor

Next 0 passes for location: London (51.5072 / 0.1276)

Sorry there are no passes over London.